Location: *
(48.8667°N, 2.3331°E)
Time: 23:50:14
(UTC+00:00)

Spot 2 Rocket - Pass Details

Date: 09 April 2020
Orbit: 757 x 772 km, 98.6° (Epoch: 04 June)

Event Time Altitude Azimuth Distance (km) Brightness Sun altitude
Exits shadow 20:22:15 28° 138° (SE) 1,410 4.3 -17.0°
Maximum altitude 20:24:47 59° 70° (ENE) 894 3.6 -17.3°
Drops below altitude 10° 20:29:49 10° 352° (N) 2,323 6.6 -18.0°
Sets 20:32:09 0° 349° (N) 3,253 7.5 -18.3°
